Temp
-6 -5 -6 -6 -6 -6 -7 -6 -6 -6 -6 -6 -6 -6 -5 -5 -7 -5 -5 -4 -5 -5 -4 -4 -4 -4 -4 -4 -4 -4 -4 -4 -3 -4 -3 -3 -3 -3 -3 -3 -3 -3 -3 -3 -3 -3 -3 -3 -3
-6 -6 -6 -6 -7 -6 -7 -7 -7 -7 -7 -6 -6 -6 -6 -6 -6 -6 -5 -6 -6 -5 -5 -5 -5 -5 -5 -4 -4 -4 -4 -4 -4 -4 -4 -4 -3 -3 -3 -3 -3 -3 -3 -3 -3 -3 -3 -3 -4
-6 -6 -6 -6 -7 -7 -7 -7 -9 -6 -7 -7 -6 -5 -6 -6 -6 -5 -5 -6 -6 -5 -5 -5 -5 -4 -4 -4 -4 -4 -4 -4 -4 -4 -4 -4 -4 -4 -4 -4 -3 -3 -3 -3 -3 -3 -3 -4 -4
-7 -6 -6 -6 -7 -7 -8 -7 -8 -7 -8 -7 -7 -5 -5 -6 -6 -5 -6 -5 -5 -5 -5 -5 -5 -5 -4 -4 -4 -4 -4 -4 -4 -4 -4 -4 -4 -4 -4 -4 -4 -4 -4 -4 -4 -4 -4 -4 -4
-7 -7 -7 -6 -8 -8 -8 -7 -8 -8 -8 -7 -7 -7 -5 -6 -6 -6 -6 -6 -6 -6 -5 -5 -5 -5 -5 -5 -5 -4 -4 -4 -4 -5 -4 -4 -4 -4 -4 -4 -4 -4 -4 -4 -4 -4 -4 -4 -4
-7 -7 -7 -7 -8 -9 -8 -9 -9 -9 -7 -7 -7 -7 -6 -6 -6 -6 -6 -7 -6 -6 -6 -5 -5 -5 -5 -5 -5 -5 -4 -4 -4 -4 -5 -5 -4 -5 -5 -5 -5 -5 -5 -5 -5 -5 -5 -5 -5
-8 -7 -8 -8 -8 -8 -8 -10 -9 -8 -8 -7 -7 -6 -5 -5 -6 -6 -6 -7 -7 -6 -6 -6 -6 -5 -5 -5 -5 -5 -5 -4 -4 -4 -4 -4 -5 -5 -5 -6 -6 -6 -6 -5 -5 -5 -5 -5 -6
-9 -8 -7 -8 -8 -9 -8 -9 -10 -10 -9 -8 -8 -6 -6 -6 -6 -6 -5 -6 -6 -7 -6 -6 -6 -5 -5 -5 -5 -5 -5 -5 -4 -4 -4 -4 -5 -5 -5 -5 -6 -6 -6 -6 -6 -6 -6 -6 -6
-9 -9 -8 -8 -8 -8 -9 -9 -9 -10 -10 -9 -8 -8 -8 -8 -8 -6 -6 -5 -5 -6 -6 -7 -6 -6 -6 -6 -5 -5 -5 -5 -5 -5 -5 -5 -5 -5 -5 -5 -6 -6 -6 -6 -6 -6 -6 -6 -6
-10 -9 -9 -9 -8 -8 -8 -8 -11 -10 -10 -10 -9 -8 -9 -8 -8 -8 -7 -7 -5 -4 -4 -6 -6 -6 -7 -6 -6 -5 -5 -5 -5 -5 -5 -5 -5 -5 -5 -5 -6 -6 -6 -6 -6 -6 -6 -6 -6
-10 -9 -10 -11 -9 -8 -9 -8 -10 -10 -10 -10 -8 -8 -8 -8 -8 -8 -8 -9 -7 -5 -4 -4 -5 -6 -6 -6 -6 -6 -5 -5 -5 -5 -5 -5 -6 -6 -6 -5 -6 -6 -6 -6 -6 -6 -6 -6 -6
-11 -11 -12 -10 -10 -9 -9 -9 -10 -10 -10 -11 -10 -9 -7 -7 -8 -8 -9 -9 -9 -7 -6 -5 -5 -5 -5 -4 -4 -5 -6 -5 -5 -5 -5 -5 -5 -6 -6 -6 -6 -6 -6 -6 -6 -6 -6 -6 -6
-12 -11 -11 -11 -10 -10 -9 -9 -10 -10 -10 -10 -10 -9 -8 -8 -8 -9 -9 -9 -9 -8 -7 -6 -6 -6 -6 -5 -5 -5 -5 -5 -5 -5 -5 -5 -5 -6 -6 -6 -7 -7 -6 -6 -6 -6 -7 -7 -7
-12 -12 -12 -11 -10 -11 -10 -10 -10 -10 -10 -9 -9 -9 -8 -9 -9 -8 -8 -8 -10 -9 -8 -7 -6 -7 -7 -6 -5 -5 -5 -5 -5 -5 -5 -6 -7 -8 -7 -8 -7 -6 -6 -7 -6 -6 -6 -6 -6
-12 -13 -12 -10 -10 -10 -10 -9 -10 -10 -10 -9 -9 -10 -9 -9 -9 -9 -10 -9 -9 -8 -8 -7 -7 -7 -7 -6 -6 -6 -5 -5 -5 -6 -6 -6 -6 -8 -8 -9 -8 -6 -7 -7 -7 -6 -6 -6 -6
-11 -11 -10 -10 -10 -10 -10 -10 -10 -10 -10 -9 -9 -9 -9 -9 -10 -9 -9 -8 -8 -7 -7 -7 -6 -7 -6 -6 -6 -6 -6 -6 -6 -6 -7 -7 -8 -7 -7 -8 -8 -7 -7 -7 -7 -6 -6 -6 -6
-11 -11 -11 -10 -11 -11 -9 -9 -10 -9 -9 -9 -9 -9 -9 -9 -8 -8 -8 -8 -9 -8 -8 -7 -6 -6 -6 -6 -6 -6 -7 -7 -7 -7 -7 -8 -8 -8 -8 -8 -9 -8 -7 -7 -7 -7 -7 -7 -7
-11 -11 -11 -12 -10 -11 -11 -9 -10 -10 -9 -9 -9 -8 -9 -8 -8 -8 -7 -7 -7 -7 -7 -7 -7 -6 -6 -7 -7 -7 -7 -7 -8 -8 -9 -8 -8 -8 -8 -8 -9 -9 -8 -8 -8 -8 -8 -8 -8
-12 -13 -12 -12 -12 -12 -12 -11 -10 -10 -11 -10 -9 -9 -8 -8 -7 -8 -7 -7 -7 -7 -7 -8 -8 -7 -7 -8 -8 -8 -8 -8 -8 -9 -9 -9 -9 -9 -10 -10 -9 -9 -9 -9 -9 -9 -9 -9 -9
-12 -12 -12 -12 -13 -11 -11 -11 -10 -10 -10 -11 -11 -10 -10 -8 -7 -7 -9 -8 -8 -8 -9 -8 -8 -8 -8 -8 -9 -9 -9 -9 -9 -9 -9 -10 -10 -10 -10 -10 -10 -10 -10 -10 -10 -10 -10 -10 -11
-13 -12 -12 -12 -12 -12 -12 -11 -10 -10 -11 -10 -11 -11 -11 -10 -9 -9 -9 -9 -9 -9 -10 -10 -10 -10 -9 -9 -9 -10 -9 -9 -10 -10 -10 -10 -12 -11 -11 -11 -11 -11 -11 -11 -11 -11 -11 -11 -11
-13 -12 -12 -11 -11 -11 -11 -11 -11 -12 -11 -12 -12 -13 -12 -11 -10 -10 -10 -10 -10 -10 -10 -10 -10 -10 -10 -10 -10 -11 -11 -11 -10 -11 -11 -11 -12 -12 -12 -12 -12 -12 -12 -12 -11 -11 -11 -11 -11
-12 -11 -11 -11 -11 -11 -11 -11 -11 -12 -12 -13 -13 -13 -13 -13 -11 -10 -10 -12 -11 -11 -11 -11 -12 -12 -12 -12 -12 -12 -12 -12 -11 -11 -12 -12 -13 -12 -12 -12 -12 -12 -12 -12 -12 -12 -12 -12 -12
-12 -12 -12 -12 -12 -12 -12 -12 -13 -13 -13 -14 -14 -14 -14 -14 -13 -12 -12 -11 -11 -11 -12 -13 -13 -13 -13 -13 -13 -13 -13 -13 -13 -13 -13 -13 -13 -13 -13 -13 -13 -13 -13 -13 -13 -12 -12 -12 -12
-12 -12 -12 -12 -12 -13 -13 -13 -14 -15 -14 -14 -14 -14 -14 -14 -14 -14 -14 -13 -13 -12 -12 -11 -12 -12 -13 -14 -14 -14 -14 -14 -14 -14 -14 -14 -14 -14 -13 -13 -13 -14 -13 -13 -13 -13 -13 -13 -13
-13 -13 -12 -12 -12 -13 -14 -14 -14 -14 -14 -14 -14 -14 -14 -15 -15 -15 -15 -14 -14 -14 -13 -13 -12 -12 -12 -13 -14 -14 -14 -15 -15 -14 -14 -15 -15 -15 -15 -15 -15 -15 -15 -15 -14 -14 -14 -13 -13
-14 -13 -13 -13 -13 -13 -15 -14 -15 -14 -14 -15 -15 -15 -15 -15 -15 -14 -14 -14 -14 -13 -13 -14 -15 -15 -14 -13 -13 -14 -15 -16 -17 -18 -17 -16 -16 -16 -16 -16 -16 -16 -16 -16 -15 -15 -15 -14 -14
-13 -13 -14 -14 -13 -13 -13 -15 -15 -15 -15 -14 -15 -14 -14 -14 -14 -14 -15 -14 -14 -15 -15 -16 -17 -17 -16 -16 -16 -16 -16 -16 -16 -16 -16 -17 -18 -18 -18 -18 -18 -18 -17 -17 -17 -17 -16 -15 -15
-13 -13 -14 -14 -14 -14 -13 -14 -16 -16 -16 -15 -15 -15 -15 -15 -15 -15 -15 -15 -16 -17 -18 -18 -18 -17 -17 -17 -17 -18 -18 -18 -18 -18 -18 -18 -18 -18 -19 -19 -18 -19 -18 -18 -17 -18 -16 -16 -16
-14 -15 -14 -14 -15 -16 -15 -15 -15 -16 -16 -16 -16 -16 -16 -16 -15 -15 -16 -17 -18 -18 -18 -18 -17 -18 -18 -17 -16 -16 -16 -17 -18 -18 -18 -18 -18 -18 -19 -19 -20 -19 -19 -19 -19 -18 -17 -17 -16
Height
5919 5922 5924 5926 5929 5928 5929 5922 5906 5912 5912 5912 5921 5926 5927 5922 5926 5931 5931 5929 5931 5932 5934 5936 5937 5937 5939 5939 5940 5942 5942 5943 5943 5943 5943 5943 5942 5942 5941 5941 5940 5940 5939 5938 5937 5936 5935 5934 5933
5917 5920 5924 5925 5927 5927 5929 5927 5914 5924 5919 5918 5922 5924 5925 5926 5928 5933 5931 5931 5932 5932 5934 5936 5936 5937 5938 5939 5940 5941 5942 5942 5942 5942 5942 5942 5941 5941 5940 5939 5939 5939 5938 5937 5936 5935 5935 5934 5933
5915 5918 5922 5923 5926 5926 5926 5928 5929 5920 5918 5917 5920 5927 5929 5930 5931 5931 5931 5931 5932 5933 5935 5936 5936 5936 5937 5937 5938 5939 5940 5941 5941 5941 5941 5940 5940 5939 5938 5938 5938 5937 5937 5936 5935 5935 5934 5933 5932
5911 5916 5920 5922 5924 5924 5924 5928 5928 5927 5919 5915 5915 5921 5928 5930 5931 5930 5930 5930 5932 5934 5934 5935 5935 5936 5936 5936 5937 5938 5938 5939 5939 5939 5939 5939 5938 5938 5937 5937 5936 5936 5936 5936 5935 5934 5933 5932 5931
5908 5912 5916 5919 5922 5921 5921 5923 5929 5930 5924 5916 5918 5919 5924 5927 5929 5930 5930 5931 5933 5933 5934 5934 5934 5935 5935 5935 5936 5937 5937 5937 5937 5937 5937 5937 5936 5936 5935 5935 5934 5933 5933 5933 5932 5932 5931 5930 5929
5902 5906 5911 5914 5912 5912 5917 5923 5927 5920 5917 5908 5909 5916 5919 5923 5925 5929 5931 5930 5930 5931 5932 5932 5933 5933 5934 5934 5934 5935 5934 5935 5935 5935 5935 5934 5934 5934 5933 5932 5931 5931 5930 5929 5929 5928 5928 5927 5926
5898 5900 5906 5908 5907 5908 5909 5912 5922 5918 5917 5907 5905 5909 5916 5921 5922 5924 5927 5932 5927 5928 5928 5929 5929 5930 5931 5932 5932 5932 5932 5932 5932 5932 5932 5932 5931 5930 5929 5929 5929 5928 5928 5927 5926 5925 5924 5923 5923
5891 5892 5900 5902 5904 5900 5907 5908 5912 5916 5918 5916 5905 5909 5913 5916 5918 5917 5919 5926 5927 5925 5925 5925 5925 5927 5928 5929 5929 5930 5930 5930 5930 5930 5929 5929 5927 5926 5925 5925 5924 5924 5924 5923 5922 5922 5921 5920 5919
5881 5888 5897 5898 5900 5897 5899 5902 5902 5904 5911 5913 5913 5908 5911 5909 5910 5912 5913 5914 5919 5922 5921 5921 5922 5925 5924 5924 5925 5926 5926 5927 5926 5925 5924 5923 5922 5920 5919 5918 5917 5918 5917 5917 5916 5916 5915 5913 5913
5874 5881 5889 5892 5894 5894 5895 5893 5897 5901 5904 5906 5903 5904 5906 5907 5907 5909 5909 5906 5907 5911 5915 5920 5920 5920 5919 5919 5919 5919 5921 5920 5919 5918 5917 5915 5913 5911 5910 5910 5911 5911 5910 5909 5909 5910 5908 5907 5906
5871 5876 5884 5884 5889 5890 5885 5889 5891 5895 5898 5895 5896 5896 5898 5906 5908 5909 5909 5903 5897 5903 5911 5914 5915 5916 5917 5916 5917 5916 5914 5914 5912 5910 5909 5908 5907 5906 5907 5906 5906 5904 5903 5904 5904 5902 5900 5900 5899
5866 5870 5874 5876 5883 5883 5883 5886 5886 5892 5895 5892 5891 5889 5890 5900 5904 5905 5906 5900 5895 5892 5896 5905 5908 5908 5908 5911 5912 5913 5909 5908 5906 5904 5901 5900 5900 5900 5899 5898 5896 5896 5896 5898 5896 5895 5895 5892 5891
5862 5866 5870 5875 5875 5877 5876 5882 5885 5888 5892 5894 5893 5893 5892 5896 5902 5904 5902 5898 5895 5894 5891 5895 5900 5901 5898 5900 5905 5906 5904 5902 5899 5897 5893 5892 5893 5889 5889 5887 5886 5884 5887 5888 5886 5886 5885 5884 5882
5861 5865 5865 5866 5874 5881 5878 5876 5878 5886 5877 5883 5886 5882 5888 5893 5893 5892 5895 5895 5891 5892 5889 5892 5894 5895 5893 5891 5895 5897 5896 5894 5892 5890 5889 5883 5882 5875 5874 5871 5879 5881 5880 5876 5876 5875 5873 5872 5872
5855 5856 5856 5867 5870 5876 5873 5875 5877 5879 5874 5879 5883 5881 5885 5886 5887 5882 5885 5886 5887 5889 5889 5886 5887 5888 5889 5887 5887 5886 5887 5885 5883 5881 5877 5878 5873 5866 5861 5859 5868 5872 5866 5867 5865 5863 5862 5862 5860
5851 5854 5860 5867 5865 5868 5868 5873 5870 5872 5873 5876 5878 5878 5879 5877 5878 5877 5878 5880 5878 5883 5885 5883 5882 5880 5881 5883 5882 5882 5878 5875 5872 5870 5868 5868 5866 5861 5860 5858 5861 5861 5860 5858 5855 5852 5851 5850 5848
5851 5856 5859 5861 5861 5860 5861 5867 5866 5870 5871 5873 5873 5872 5872 5872 5872 5875 5874 5874 5874 5875 5874 5873 5874 5873 5873 5874 5875 5874 5870 5864 5862 5859 5858 5855 5853 5850 5850 5853 5852 5851 5849 5846 5843 5842 5841 5839 5837
5848 5853 5852 5850 5851 5854 5854 5858 5860 5861 5864 5865 5864 5863 5860 5863 5864 5866 5866 5867 5868 5866 5864 5864 5862 5865 5864 5862 5861 5861 5860 5856 5853 5847 5845 5844 5841 5839 5841 5839 5838 5837 5835 5834 5834 5832 5829 5827 5825
5846 5846 5848 5851 5850 5850 5851 5853 5855 5857 5854 5852 5854 5853 5851 5853 5854 5855 5856 5858 5857 5856 5856 5852 5849 5851 5852 5847 5847 5848 5848 5846 5844 5840 5836 5834 5832 5831 5831 5829 5825 5823 5823 5823 5821 5819 5817 5815 5812
5837 5839 5845 5849 5843 5844 5843 5848 5852 5852 5851 5847 5842 5841 5842 5845 5846 5848 5849 5847 5846 5844 5842 5841 5842 5841 5840 5837 5836 5836 5833 5835 5834 5832 5828 5825 5823 5821 5819 5817 5816 5814 5812 5811 5809 5807 5807 5805 5801
5837 5838 5839 5841 5839 5838 5840 5839 5847 5846 5844 5841 5842 5837 5835 5834 5837 5841 5842 5838 5837 5836 5835 5833 5832 5831 5831 5828 5824 5823 5822 5821 5822 5819 5816 5814 5810 5809 5808 5807 5806 5802 5801 5800 5798 5796 5795 5794 5792
5832 5829 5830 5834 5838 5839 5838 5832 5837 5835 5833 5832 5831 5829 5826 5826 5828 5830 5832 5832 5830 5827 5825 5823 5822 5821 5819 5815 5813 5812 5811 5810 5810 5809 5808 5806 5802 5797 5795 5794 5792 5790 5788 5787 5785 5784 5782 5780 5780
5823 5824 5829 5831 5832 5831 5835 5829 5830 5826 5824 5823 5823 5822 5818 5818 5816 5818 5818 5821 5821 5818 5815 5812 5810 5809 5808 5807 5805 5802 5798 5794 5792 5793 5791 5791 5788 5786 5785 5784 5779 5776 5775 5773 5771 5770 5768 5766 5766
5819 5819 5820 5824 5826 5828 5826 5825 5826 5820 5820 5817 5814 5810 5804 5798 5798 5798 5795 5799 5801 5804 5804 5801 5799 5799 5796 5794 5792 5789 5786 5783 5780 5778 5776 5772 5771 5770 5771 5769 5764 5762 5761 5759 5757 5756 5756 5755 5754
5813 5814 5816 5820 5820 5820 5820 5824 5820 5814 5808 5809 5808 5802 5798 5796 5793 5791 5785 5783 5781 5780 5781 5789 5792 5788 5784 5780 5777 5774 5772 5770 5766 5764 5761 5758 5754 5750 5749 5750 5748 5746 5744 5743 5742 5742 5741 5741 5741
5808 5808 5809 5813 5813 5817 5818 5816 5814 5814 5809 5808 5805 5800 5794 5793 5788 5784 5779 5777 5774 5771 5766 5763 5762 5764 5765 5765 5763 5760 5757 5754 5750 5748 5746 5742 5738 5734 5732 5731 5730 5728 5727 5727 5727 5727 5727 5727 5726
5805 5804 5807 5808 5810 5813 5812 5808 5805 5804 5802 5799 5796 5794 5790 5783 5778 5776 5772 5768 5763 5760 5756 5754 5752 5748 5744 5740 5740 5744 5743 5740 5737 5733 5727 5723 5720 5718 5715 5714 5713 5712 5711 5711 5711 5711 5712 5712 5711
5801 5801 5802 5800 5803 5805 5809 5804 5797 5795 5788 5791 5784 5781 5781 5775 5771 5764 5759 5758 5755 5751 5744 5741 5737 5731 5728 5728 5723 5717 5714 5712 5711 5711 5709 5705 5699 5697 5695 5697 5697 5696 5696 5696 5695 5694 5695 5698 5696
5796 5796 5795 5795 5795 5794 5796 5801 5796 5789 5781 5777 5772 5767 5762 5759 5759 5759 5755 5750 5745 5741 5735 5728 5722 5716 5710 5708 5705 5701 5698 5691 5686 5684 5682 5684 5685 5678 5679 5677 5678 5678 5679 5680 5678 5679 5682 5683 5684
5790 5788 5789 5788 5789 5786 5783 5782 5790 5783 5770 5766 5762 5758 5755 5752 5749 5745 5741 5736 5729 5722 5714 5707 5705 5700 5694 5689 5687 5683 5681 5678 5673 5667 5663 5662 5663 5662 5660 5659 5659 5660 5660 5662 5663 5667 5669 5670 5672
Wind_Speed
18 15 19 22 14 9 15 15 16 19 14 22 10 13 12 21 17 13 8 10 9 8 5 2 3 4 4 3 2 1 1 3 5 6 7 8 8 8 8 8 8 9 8 6 4 4 3 3 3
22 19 20 24 13 8 14 6 27 9 18 18 14 10 17 16 18 8 6 9 7 5 3 1 2 2 2 1 0 1 3 4 5 6 7 7 9 10 10 10 10 11 11 10 8 7 6 6 5
25 23 23 28 10 10 5 10 7 13 18 15 15 9 10 6 7 4 3 4 3 2 1 2 1 2 2 2 2 4 5 7 9 9 9 8 8 9 9 10 10 10 11 11 10 9 8 7 7
29 27 26 27 18 7 18 4 11 8 20 20 22 19 5 2 1 2 2 1 1 3 4 4 5 4 6 5 5 6 7 7 9 10 12 12 13 12 10 11 11 12 12 12 11 11 10 9 9
31 30 29 28 12 8 12 6 3 7 12 17 22 23 16 9 6 1 2 4 5 7 8 8 8 7 6 6 7 8 9 10 11 11 11 12 12 13 13 13 13 13 13 13 13 13 13 11 11
32 35 34 33 26 12 7 8 7 9 19 22 21 23 19 15 13 10 5 3 5 7 9 11 12 11 10 9 9 10 11 12 13 13 14 14 14 15 15 16 16 16 16 15 15 15 14 13 13
31 37 37 35 31 13 20 14 10 20 12 19 17 23 18 11 14 15 15 10 13 13 13 13 15 16 16 15 14 15 16 16 16 18 18 18 18 19 20 21 21 20 20 19 19 18 18 18 20
33 38 39 40 34 29 16 19 12 18 25 29 30 28 25 21 16 22 20 14 14 16 19 18 18 18 18 20 21 21 20 21 21 21 21 22 23 23 24 24 25 25 25 25 25 25 26 26 26
42 39 35 43 36 34 21 24 16 22 26 25 28 28 29 30 30 28 24 24 21 19 21 21 22 20 23 22 22 23 24 23 21 22 24 25 25 26 27 28 28 29 28 29 29 30 30 31 32
45 42 37 43 48 33 28 30 16 19 16 27 34 35 34 35 33 28 27 30 30 27 23 19 20 22 20 24 23 25 22 23 22 22 23 25 27 28 30 31 30 31 32 32 32 32 33 34 35
40 42 38 38 49 39 29 35 28 22 24 22 39 43 43 37 36 30 27 31 37 32 28 22 18 22 22 24 22 22 25 23 24 26 28 29 30 31 32 33 34 35 35 35 35 35 36 36 37
37 31 31 50 49 43 32 31 35 28 28 23 33 36 45 41 35 31 27 30 35 37 35 25 21 24 26 27 24 21 24 26 29 31 32 35 37 36 38 38 38 37 38 37 39 40 41 41 41
26 23 23 17 52 42 42 35 36 36 28 22 29 37 44 38 34 31 33 35 37 36 39 35 24 23 28 28 24 24 28 30 31 33 38 42 41 47 47 47 41 37 38 39 43 42 42 44 46
21 10 25 25 37 28 41 56 42 35 38 40 30 45 40 32 37 43 41 38 34 36 38 35 33 30 32 33 30 29 31 33 34 38 41 48 45 31 54 58 42 33 40 42 44 45 45 46 48
23 24 27 15 14 20 24 31 45 48 54 36 29 29 47 49 26 47 38 35 32 39 37 36 36 37 36 35 36 36 36 39 42 44 47 45 43 51 20 31 13 38 49 40 43 44 46 46 48
32 30 21 11 18 13 19 15 16 21 21 19 23 31 32 27 31 35 36 33 29 34 35 35 38 41 41 39 40 41 44 47 49 50 49 47 47 51 48 41 23 33 37 45 45 48 48 49 51
23 18 9 1 9 12 15 17 17 22 20 24 27 28 30 31 31 31 35 30 29 35 37 39 41 44 44 45 47 48 49 49 49 49 49 47 48 43 45 44 46 41 49 50 49 49 50 51 52
21 15 5 18 16 16 21 19 24 20 18 23 24 28 31 32 34 33 36 35 35 39 41 45 49 50 52 51 50 49 48 48 46 46 44 45 38 45 47 48 48 51 51 49 50 51 51 51 50
19 16 14 10 8 15 22 29 22 24 32 32 31 33 37 37 40 39 38 39 45 48 45 42 45 50 47 48 48 47 45 44 43 43 45 49 47 45 45 50 50 51 49 49 49 48 46 44 46
26 30 20 17 18 25 32 30 27 29 33 26 29 33 29 40 44 44 36 39 41 41 41 42 43 45 46 47 48 47 45 44 44 46 44 48 39 42 50 51 51 49 48 46 46 45 43 44 43
22 25 24 30 32 33 35 38 32 29 24 28 25 29 35 38 38 37 32 38 39 39 40 41 43 45 46 49 50 49 50 50 48 49 49 41 44 47 52 52 50 50 50 48 47 46 46 45 44
27 35 35 33 33 32 33 39 28 17 24 23 25 29 38 40 39 37 34 34 37 40 43 45 46 47 47 50 50 51 51 52 51 50 49 54 53 55 56 55 53 53 52 51 50 49 49 50 49
30 35 29 29 28 29 23 28 16 13 14 25 29 34 40 41 41 43 42 38 40 40 42 42 42 44 45 46 48 50 52 53 53 55 55 56 57 59 60 58 58 58 55 55 54 53 52 53 52
22 23 25 21 18 18 11 11 6 14 22 23 28 36 40 44 52 47 48 47 41 35 31 34 36 36 38 40 43 47 49 53 55 57 59 59 60 60 59 59 60 60 58 57 57 56 55 56 55
23 23 22 18 12 7 8 10 7 19 21 28 34 40 44 47 52 54 55 54 56 54 53 46 41 42 44 47 49 51 51 54 58 59 59 61 64 66 66 65 63 63 62 61 60 59 59 58 57
15 16 19 15 19 15 9 10 17 19 24 29 33 38 43 43 47 51 53 56 60 56 61 60 56 52 50 48 48 52 54 57 61 64 66 67 68 69 69 68 67 66 67 66 65 64 62 60 60
11 14 10 10 15 23 9 11 18 25 29 32 34 37 39 45 50 54 62 66 63 61 62 62 61 62 64 66 65 57 56 56 57 61 68 71 71 72 72 72 72 71 71 71 70 68 66 64 62
14 15 13 16 16 18 23 25 23 26 31 35 35 45 48 55 62 64 65 64 65 67 68 64 64 68 67 65 67 67 66 70 72 66 66 69 73 74 74 72 72 71 66 73 73 73 68 64 60
16 16 18 20 22 25 27 24 23 28 32 41 46 51 58 61 62 60 63 67 68 64 63 66 69 69 68 61 58 59 62 67 67 67 62 57 56 66 65 73 75 75 75 68 58 70 66 58 57
18 22 22 23 23 27 32 37 25 34 45 51 56 57 60 61 63 64 62 60 61 64 67 68 66 64 64 63 62 62 60 60 64 67 68 66 61 67 67 63 67 72 75 72 74 62 58 54 55
Wind_Direction
200 186 173 162 151 138 82 80 308 308 332 300 312 329 11 22 101 125 135 104 112 106 102 109 120 128 133 138 137 96 325 318 319 320 321 323 325 325 323 321 318 317 313 299 280 261 254 270 301
203 186 178 170 180 200 120 177 359 248 279 274 339 328 30 44 97 84 82 93 94 97 99 116 113 88 103 107 38 271 286 296 301 308 316 323 327 327 326 318 312 306 303 295 283 276 277 287 311
211 188 179 181 170 260 305 208 22 321 282 301 287 312 20 79 170 144 85 82 87 90 138 215 194 189 222 195 227 265 280 286 291 290 292 299 301 305 309 308 303 295 290 289 283 278 278 282 300
210 196 184 181 180 205 251 294 173 348 323 311 291 287 299 5 205 183 147 176 250 246 245 234 231 225 228 232 243 246 251 262 272 280 283 285 285 287 287 293 299 301 299 295 290 285 280 282 289
213 205 186 185 169 241 258 207 291 221 248 285 288 282 271 261 254 188 164 203 235 251 258 263 263 269 265 262 263 263 264 268 270 273 277 282 283 285 286 288 288 284 284 283 281 277 277 280 285
213 208 194 193 201 223 191 238 201 196 242 239 249 272 266 246 230 223 225 270 260 256 258 260 262 266 271 277 277 281 280 277 275 275 276 274 277 280 281 279 278 277 276 275 274 273 273 275 280
216 212 201 199 209 213 189 181 227 241 270 278 265 266 254 234 248 238 236 214 263 259 258 254 249 252 258 263 272 280 285 283 279 276 274 274 274 274 276 277 277 277 277 274 273 271 270 271 275
214 217 208 207 207 218 193 185 205 229 218 236 267 268 271 269 265 269 254 240 239 260 264 253 255 257 257 262 264 269 283 288 286 285 283 280 277 276 276 276 277 277 276 275 276 277 278 279 281
222 211 210 213 209 217 215 185 202 199 236 233 236 259 265 275 273 269 276 277 258 242 245 259 264 255 265 268 271 274 280 288 285 282 279 279 278 276 273 271 270 272 273 273 273 273 274 275 276
232 206 202 217 219 220 204 195 188 210 206 229 237 245 246 254 267 272 283 287 274 266 245 233 251 270 272 275 280 285 289 289 290 286 281 278 276 273 271 272 273 273 272 272 275 277 277 277 278
232 224 201 210 218 227 191 200 191 202 169 206 232 238 241 249 259 267 271 276 280 273 265 254 240 239 251 259 263 275 283 285 289 289 288 287 284 281 279 278 275 275 275 276 277 275 275 277 277
236 244 240 207 212 235 235 207 200 212 186 205 222 240 246 236 241 261 269 272 279 280 281 270 268 269 265 257 258 260 272 282 281 283 285 285 282 283 282 279 277 277 278 281 278 277 277 276 276
239 242 254 247 219 232 246 237 209 215 217 225 257 255 261 271 275 264 262 268 268 273 280 284 282 274 274 270 269 267 267 273 280 284 288 286 284 291 285 277 269 273 279 281 278 280 278 277 276
221 230 268 265 234 245 262 252 248 236 231 226 237 255 248 264 265 268 263 258 269 271 277 283 285 282 282 282 278 270 270 274 276 279 284 290 291 289 297 278 264 278 281 276 277 277 277 276 277
200 231 234 259 242 257 263 246 251 254 257 256 250 270 256 259 284 254 259 257 266 275 276 282 284 285 281 281 284 286 282 281 283 284 282 280 286 280 264 325 272 265 274 278 281 279 279 280 280
217 219 246 275 271 257 258 251 239 254 251 251 264 263 271 276 272 276 270 254 265 281 279 279 278 280 278 278 280 280 281 281 280 279 283 286 280 282 284 289 274 273 272 284 281 282 281 281 280
223 225 247 241 293 270 251 235 260 250 257 253 258 254 257 255 258 264 276 276 274 276 280 282 277 276 275 275 274 273 277 280 280 282 281 283 285 275 278 275 274 267 283 284 284 283 282 280 279
215 227 278 304 268 255 283 265 274 289 284 281 269 270 276 273 273 272 271 278 276 277 277 272 269 268 273 277 276 277 277 277 281 279 278 277 265 277 281 281 279 277 280 281 281 280 280 280 281
242 228 222 274 290 265 262 263 288 293 294 289 284 282 282 287 281 287 286 280 277 278 277 277 278 278 281 280 279 279 277 277 276 275 277 279 271 281 280 278 279 282 282 283 282 282 282 282 282
220 230 205 219 257 245 250 258 281 283 287 274 272 285 279 281 282 283 282 278 277 277 278 277 276 276 277 278 278 277 278 278 276 276 274 271 269 278 279 278 280 281 282 281 281 280 279 279 281
237 245 227 223 238 252 269 284 287 289 277 276 278 279 278 277 277 277 275 274 275 277 278 277 276 274 273 274 276 278 279 280 277 274 280 258 285 281 278 279 280 280 280 280 279 279 280 280 283
232 245 250 255 267 277 281 285 293 277 271 277 283 277 275 279 282 278 275 266 262 263 265 267 268 269 271 272 276 277 276 274 275 274 271 270 277 277 278 278 278 277 276 277 277 277 277 279 280
238 251 263 266 268 269 283 283 299 284 270 261 256 256 266 276 275 277 277 277 279 282 281 276 275 277 277 276 275 276 279 281 281 278 276 273 272 273 275 275 275 276 276 276 276 276 276 279 280
253 252 251 256 264 275 278 286 297 252 261 273 278 284 288 291 297 298 299 301 290 280 274 281 282 284 281 280 280 281 279 277 276 276 276 274 275 275 277 275 274 275 276 276 276 277 278 280 281
255 261 261 256 242 261 225 169 234 281 278 280 283 286 289 292 296 297 299 299 299 297 292 285 278 282 284 281 276 272 271 272 272 271 271 271 272 273 272 274 275 275 275 275 275 276 277 280 281
261 257 256 243 211 192 204 218 238 251 261 267 272 275 279 282 285 285 287 291 294 294 300 303 303 296 284 275 274 276 274 272 272 273 272 270 270 271 273 273 273 273 274 274 275 276 277 279 279
271 266 275 241 215 200 234 250 241 245 249 259 258 264 267 270 274 279 284 288 294 299 300 302 301 295 293 291 288 281 275 269 270 273 271 268 268 268 268 268 268 270 272 274 274 274 275 276 279
260 270 267 268 261 241 223 232 271 273 277 271 269 269 271 275 279 282 286 294 298 300 303 301 297 293 292 291 290 289 284 277 275 273 265 264 268 267 265 267 270 272 274 277 276 274 275 278 280
279 277 277 277 278 277 267 245 242 266 274 272 270 269 274 277 278 282 287 291 296 299 295 291 289 292 295 293 289 285 283 284 285 285 281 268 266 262 267 271 267 262 262 262 270 273 275 278 279
276 278 278 278 275 273 277 278 275 261 260 263 268 269 273 280 284 290 299 298 295 290 285 286 291 289 288 289 289 287 283 279 278 278 278 278 268 270 270 270 267 265 266 268 267 269 277 278 278